Wakaba and Kareha support board

Num Title Posts Last post File size
1: The Unarchiver, part 2 482 2017-03-29 03:13 336 kb
2: MilkSnake 52 2017-03-18 00:35 37 kb
3: The Wakaba and Kareha support thread, part 3 530 2017-03-15 09:33 366 kb
4: Rotating banners 5 2017-03-13 01:52 8 kb
5: Translations in other languages 5 2017-03-03 18:48 6 kb
6: drop 1 2017-02-24 07:46 5 kb
7: Nicht einstellbar 1 2017-02-22 00:48 5 kb
8: Mac OS X screen savers 382 2017-02-21 19:36 247 kb
9: The Unarchiver: An abandon project? 1 2017-02-18 21:04 5 kb
10: 500 Internal Server Error 416 2017-02-06 15:10 295 kb
11: Xee, part 2 626 2017-01-18 04:20 449 kb
12: How to make wakaba running in cgi-bin and other directories 5 2017-01-17 02:38 7 kb
13: The Archive Browser 170 2016-09-01 14:27 112 kb
14: WaveFlower IOS Support 2 2016-08-26 10:21 6 kb
15: The Wakaba/Kareha patches thread 1 2016-08-09 01:43 5 kb
16: Xee Support Thread 387 2016-08-04 21:28 288 kb
17: Sparkle vulnerability for auto-updating 12 2016-07-04 15:01 9 kb
18: Archives.app 37 2016-05-20 22:31 24 kb
19: Mac OS X widgets 92 2016-04-08 20:08 60 kb
20: uploading images by URL 20 2016-03-18 20:22 16 kb
21: Can't unarchive files directly by double clicking. 2 2016-03-15 21:09 6 kb
22: 【Kareha】 Kareha sites out there? (permasaged) 30 2016-01-25 13:36 18 kb
23: This is a test with the Apple logo code (permasaged) 13 2015-12-16 20:55 11 kb
24: Easter eggs (permasaged) 16 2015-12-16 21:04 8 kb
25: Board closed for now (permasaged) 3 2015-10-13 18:49 6 kb
26: Welcome to the board. (permasaged) 18 2016-07-03 21:01 10 kb
27: Multiple images per post? (permasaged) 30 2016-03-19 01:35 21 kb
28: OS X Yosemite (10.10) isn't supported 2 2014-10-18 21:31 5 kb
29: 【Wakaba】 Admin tripcodes -ATTEMPT- 16 2014-04-25 16:00 14 kb
30: Translations 17 2014-03-28 22:27 10 kb
31: Image annotation script 108 2014-03-03 08:34 78 kb
32: Capcode 13 2014-01-17 13:18 16 kb
33: Gameboy Advance experiments 15 2014-01-05 06:58 15 kb
34: APNG support 26 2013-12-29 03:55 24 kb
35: No QuickLook on Mavericks (closed) 2 2013-11-02 02:49 4 kb
36: Filter 4 2013-10-06 03:38 6 kb
37: plz 2 fix tripcodes (permasaged) 18 2013-09-29 03:54 13 kb
38: Who's ripping off the Wakaba logo? (permasaged) 62 2013-08-27 19:24 38 kb
39: Wakaba localization (permasaged) 5 2013-08-17 23:29 7 kb
40: Wakaba/Kareha patches 104 2013-08-16 18:49 83 kb
41: holding posts for moderation (permasaged) 7 2013-07-18 06:19 9 kb
42: The Illusory Land of Gensokyo 3 2013-06-22 10:42 6 kb
43: Swear 151 2013-03-05 21:16 98 kb
44: The Society for the Study of Modern Image Board Culture 7 2016-01-25 13:28 8 kb
45: html tags not filtered (permasaged) 23 2013-01-22 20:21 15 kb
46: Multiple Boards 45 2013-01-21 16:03 32 kb
47: No Thumbnail 66 2012-11-05 19:19 50 kb
48: cant install this 2 2012-11-18 23:14 6 kb
49: Multiple images per post ??? 1 2012-10-22 00:31 5 kb
50: various ^H hacks (permasaged) 30 2013-10-19 23:17 19 kb
51: Oops. 6 2012-09-24 01:44 8 kb
52: Good hosts for wakaba / Kareha / Notes 11 2012-09-13 15:02 15 kb
53: Animate oekaki? (closed) 7 2012-08-27 09:28 6 kb
54: Hope to support Chinese 2 2012-08-25 23:22 5 kb
55: The Legendary Next Update (closed) 365 2012-08-16 09:47 321 kb
56: 【Kareha】 Comma Thread Syntax? (closed) 26 2012-08-16 09:43 21 kb
57: Wakaba Documentation 10 2013-07-22 06:32 10 kb
58: Testers appreciated (permasaged) 16 2012-06-28 02:07 15 kb
59: Transparent thumbnail (closed) 6 2012-05-28 08:27 6 kb
60: Getting 403 errors for .pl files,running on windows (permasaged) 43 2012-05-24 09:55 35 kb
61: Wakaba design choice query (permasaged) 3 2012-04-23 22:16 6 kb
62: Wakaba & Kareha 3.0.0 349 2012-04-06 12:57 257 kb
63: Spanish Translations 1 2012-03-21 22:55 5 kb
64: md5 ban (closed) 3 2012-03-20 09:58 4 kb
65: File Type Not Supported 18 2012-02-11 11:59 14 kb
66: The Unarchiver (closed) 1000 2011-11-25 20:06 711 kb
67: Kareha bans and nginx 11 2011-11-21 18:57 11 kb
68: embedding youtube/etc? 25 2011-10-16 01:08 24 kb
69: Wakaba and dollchan extension 2 2011-10-01 04:09 5 kb
70: Commercial application of wakaba 2 2011-09-29 04:18 6 kb
71: Kareha 3.1.0 46 2011-09-03 14:08 34 kb
72: "XML Parsing Error: not well-formed"? 31 2011-07-06 17:31 19 kb
73: Tripcode method? (permasaged) 47 2015-01-19 00:32 33 kb
74: Integration of several boards into one (permasaged) 9 2011-06-02 06:34 10 kb
75: Wakaba/Kareha on Dreamhost 71 2011-04-26 23:33 53 kb
76: Another "things from 4chan" (permasaged) 64 2012-04-16 04:02 47 kb
77: Spoiler tags? 30 2011-04-02 17:07 22 kb
78: wakaba oekaki animation and resume drawing support 3 2011-03-21 01:46 6 kb
79: Users that speak Spanish? 22 2011-03-13 03:09 21 kb
80: Spanish Support? 12 2011-03-12 23:05 12 kb
81: What about stickies? (permasaged) 38 2011-08-15 11:24 29 kb
82: I need to heavily modify Kareha... YOU WILL BE PAID 9 2011-02-13 14:49 8 kb
83: PerlHP 20 2011-04-24 01:47 18 kb
84: The Wakaba and Kareha support thread, part 2 (closed) 1000 2011-01-07 15:56 674 kb
85: Posting problems 16 2010-09-21 02:13 16 kb
86: Adding a whitelist for URLs on top of the spam blacklist? 6 2010-08-16 12:43 9 kb
87: using Wakaba or Kareha instead of a message forum. (permasaged) 9 2013-11-02 18:06 12 kb
88: Main Page Forbidden Error 12 2010-06-08 07:53 11 kb
89: WakabaMark 70 2012-01-31 23:11 47 kb
90: Just trying to make sense of it all 95 2010-02-12 17:43 79 kb
91: "USER WAS BANNED FOR THIS POST" mark (permasaged) 35 2010-01-04 23:55 27 kb
92: KML viewer 8 2009-12-22 09:35 10 kb
93: Wakaba ban system 33 2009-11-09 17:03 28 kb
94: Wilt, a compression algorithm 4 2009-08-30 09:20 8 kb
95: The Unarchiver 2.0 testing thread (closed) 92 2009-08-22 16:59 71 kb
96: Xee (closed) 1000 2009-07-21 21:20 770 kb
97: Web games 8 2009-07-15 04:17 9 kb
98: Wakaba vs Kareha 24 2009-06-13 07:32 21 kb
99: CAN WE JUST HAVE STICKIES AND BE DONE WITH THIS SHIT!? (permasaged) 13 2009-05-28 03:48 12 kb
100: Mass image upload / Reply? 4 2009-04-28 06:19 7 kb
101: Add thumb image to management panel instead of 'src/123456789.jpg' 17 2009-04-10 16:10 14 kb
102: The Desktop 85 2009-01-12 06:00 79 kb
103: Is there any way to create consecutive post numbers on kareha? (permasaged) 7 2009-01-06 12:43 9 kb
104: Error: Management password incorrect. (permasaged) 12 2009-01-05 16:29 10 kb
105: Kareha mutations (permasaged) 45 2009-01-04 20:25 30 kb
106: Spam-Filters blocking 12 2008-12-12 04:23 13 kb
107: can i translate perl to php? 24 2008-12-18 17:58 29 kb
108: No user delete. 11 2008-12-11 06:21 13 kb
109: Link format idea. (wakabamark) 5 2008-11-02 22:56 9 kb
110: Upgrading from Kusaba to Wakaba 5 2008-10-09 03:30 6 kb
111: Problem with Multiple Boards and Refresh 21 2008-09-25 09:42 17 kb
112: Side Menu F5 problems. (permasaged) 4 2008-09-24 14:28 7 kb
113: Documentation wiki 7 2008-08-24 05:53 10 kb
114: Porn problems 8 2008-08-22 14:00 9 kb
115: Features 36 2008-08-05 16:00 26 kb
116: Speed! 5 2008-08-07 07:17 10 kb
117: Random discovered information 8 2008-07-09 22:13 10 kb
118: which is best for beginners 6 2008-07-04 22:02 10 kb
119: Blue moon template 25 2008-06-08 21:04 13 kb
120: Crazy ideas 43 2008-04-16 18:40 47 kb
121: Wakaba and Kareha link buttons? 26 2008-04-16 18:40 17 kb
122: Setting up multiple sections? 20 2008-03-07 07:05 18 kb
123: Help setting up a Ban screen 9 2008-01-25 03:07 12 kb
124: Wakaba update status? 4 2007-11-29 18:39 7 kb
125: DNS trouble 3 2007-11-23 15:50 6 kb
126: noob guide needed 9 2007-11-29 08:01 11 kb
127: Thumbnail spoiler/censoring? 4 2007-11-10 14:59 7 kb
128: Free hosts? 2 2007-11-08 16:56 5 kb
129: Critical SQL problem! 13 2007-11-05 20:27 13 kb
130: Wakaba or Kareha 22 2007-10-23 17:31 21 kb
131: date backwards? 14 2007-10-23 21:49 12 kb
132: The Wakaba and Kareha support thread (closed) 1000 2007-10-11 07:01 696 kb
133: Kareha Integration into Joomla CMS ? 8 2007-09-17 09:29 8 kb
134: Buffer Overflow 7 2007-08-27 21:24 10 kb
135: expanding textarea and opera 9 2007-08-25 14:05 9 kb
136: Server requirements and other questions 7 2007-07-12 17:30 9 kb
137: Backwards with unicode fix? 19 2007-06-23 06:03 15 kb
138: Admin post form 3 2007-06-02 22:55 8 kb
139: Wakaba - broken repair_database() 8 2007-05-05 17:13 10 kb
140: Kareha 2.0.0 (closed) 34 2007-05-05 12:47 31 kb
141: Wakaba / Kareha internal search engine? 5 2007-05-05 11:36 7 kb
142: Wrong Vericode 15 2007-04-04 20:28 16 kb
143: .pl doesn't work for me 4 2007-03-21 18:36 7 kb
144: configuring the clock? 13 2007-03-19 05:55 12 kb
145: OpenID 20 2007-03-08 01:18 17 kb
146: mucking with wakaba 14 2007-02-21 02:41 13 kb
147: I made a thing 4 2007-02-16 21:27 6 kb
148: Logic behind "sage" in URL field and EMAIL_ID 19 2007-02-14 11:46 21 kb
149: Link field suggestion 15 2007-02-06 01:47 14 kb
150: request sample oekaki config 9 2007-03-09 08:22 10 kb
151: Preference for Opening File types (permasaged) 2 2006-11-30 04:42 5 kb
152: Heavily Modified Tiddly Wiki? 6 2006-11-11 21:19 8 kb
153: Rescue of ShiiChan 6 2006-10-29 00:58 7 kb
154: Permasaging in Wakaba 2 2006-10-25 13:49 5 kb
155: License of wakaba 4 2006-10-20 03:43 6 kb
156: Spambot, how to stop without captcha? 10 2006-10-02 18:39 13 kb
157: Looking to Switch to Wakaba 9 2006-09-15 14:18 9 kb
158: Another thread about stickies.. 3 2006-09-12 22:26 6 kb
159: Horizontal Lines after Thread Deletion? 4 2006-09-01 00:43 7 kb
160: how to setup load balancing. aka load pics from another server 11 2007-03-12 19:25 12 kb
161: Oekaki error 4 2006-08-21 20:33 6 kb
162: Administration Trouble. 6 2006-08-17 15:33 7 kb
163: Race condition? 4 2006-08-02 09:43 7 kb
164: max_lines_shown not working. 3 2006-08-01 16:20 7 kb
165: Google Code 3 2007-01-05 04:18 6 kb
166: Kareha post browsing 5 2006-07-18 18:49 8 kb
167: How do I... (things from 4chan) (permasaged) 110 2016-03-24 05:23 111 kb
168: Kareha needs some sort of search post function 6 2006-06-15 20:40 7 kb
169: Just got hit by a spam bot 18 2006-05-15 20:25 14 kb
170: Total fuckup, part THE THIRD! 3 2006-05-12 01:56 6 kb
171: Absolute post numbering in Kareha 4 2006-05-05 00:25 7 kb
172: Require registrations (Wakaba) 13 2006-04-25 07:35 13 kb
173: Doujin script 4 2006-04-25 07:36 7 kb
174: I am a fucking n00b 7 2006-04-13 06:07 7 kb
175: [Kareha] Ban only posters by IP? 14 2006-04-02 12:30 15 kb
176: stickies 4 2006-04-01 05:05 6 kb
177: Banning IP ranges? 12 2006-03-22 10:11 10 kb
178: New page design 9 2006-03-22 10:11 10 kb
179: Cookies not sticking? 11 2006-03-22 10:11 9 kb
180: Permition problems.. 5 2006-03-09 21:50 7 kb
181: No Image message. 3 2006-03-09 06:00 6 kb
182: Kareha problem 31 2006-03-07 22:34 23 kb
183: Can't set up Mona font 10 2006-03-07 00:52 10 kb
184: proxy check? 2 2006-03-05 19:27 5 kb
185: Security update 9 2006-03-04 02:57 10 kb
186: Help me, please 5 2006-03-02 06:18 7 kb
187: How do I delete posts as an admin in kareha? 3 2006-05-12 11:00 6 kb
188: Order of threads in Wakaba 3 2006-02-26 01:52 6 kb
189: MySQL example. 4 2006-02-25 04:14 6 kb
190: Kareha Newbie Can't Get Images in Posts 4 2006-02-24 21:07 7 kb
191: global post numbering (Kareha) 6 2006-02-21 08:16 7 kb
192: super-compact kareha (permasaged) 45 2016-12-08 06:12 93 kb
193: OK... really... what the heck is wrong now? 5 2006-02-18 17:09 6 kb
194: Deleted posts & post counts (ugh) 6 2006-02-18 16:23 10 kb
195: Internal character conversion? 2 2006-02-13 00:12 5 kb
196: Kareha suggestion 3 2006-02-15 12:06 6 kb
197: What determines when a thread gets deleted? 4 2006-02-07 00:23 7 kb
198: Template issues with Kareha in Futaba mode 7 2006-02-12 19:21 10 kb
199: A problem with the administration 2 2006-01-27 01:43 6 kb
200: Wakaba.pl source shows up 6 2006-01-13 15:37 8 kb
201: Where do I even start? 11 2006-01-12 00:53 13 kb
202: me again... few basics questions on Kareha 12 2006-01-07 16:10 13 kb
203: Convert easily from Futalallaby to Wakaba 5 2006-01-06 00:06 7 kb
204: Kareha in Perl 5.005 2 2006-01-05 23:10 7 kb
205: proxy check 6 2005-12-20 13:26 8 kb
206: No file? 4 2005-12-18 22:06 6 kb
207: Pimping software 6 2005-12-18 14:58 7 kb
208: Mozilla YSOD on test thread 7 2006-09-03 20:26 8 kb
209: Google Base 2 2005-11-21 14:07 5 kb
210: If you can see this, post ITT 6 2005-11-21 08:10 8 kb
211: need a script to automatically syndicate wakaba 6 2005-11-06 07:18 8 kb
212: what to do with a security freaked server? 7 2005-10-17 04:55 11 kb
213: What to do if your Server doesnt support ImageMagick 4 2005-10-14 13:59 7 kb
214: 【Kareha】 2ch browsers? 13 2009-05-09 20:04 12 kb
215: Feature Request: Archive 11 2015-04-11 02:15 11 kb
216: Script changing permissions? 3 2005-10-06 23:23 6 kb
217: Use GDlib v 2.0 to thumbnail 10 2005-10-05 22:17 11 kb
218: Metadata, categorical filtering, and multiple boards 10 2005-10-05 21:53 13 kb
219: Oekaki problem 10 2005-10-05 20:33 10 kb
220: Help the n00b :$ 12 2005-10-02 00:20 12 kb
221: Free server? 5 2005-09-27 15:51 7 kb
222: 【Kareha】 New Refresh Bug? 6 2005-09-27 15:09 9 kb
223: Max number of lines enforced in Kareha? 8 2005-09-25 10:37 10 kb
224: Random questions 24 2005-09-24 13:04 28 kb
225: help!! 6 2005-09-22 21:47 8 kb
226: Proxy, anti-captcha, archive, and other things... 11 2005-09-12 08:02 12 kb
227: byte to kilobyte 14 2005-09-08 06:30 12 kb
228: problem with nchan.tk 4 2005-09-04 14:16 7 kb
229: Non-image file posting 19 2005-09-03 13:39 16 kb
230: Weak captcha 15 2005-08-31 23:56 19 kb
231: Kareha: Sticky threads? 6 2005-08-28 03:41 8 kb
232: 【Kareha】 Closing Threads 24 2005-08-27 20:53 23 kb
233: Internal Server Error 11 2005-08-27 03:27 12 kb
234: "Either this image is too big.." 4 2005-08-25 19:38 7 kb
235: Scripts create files that have permission 600 8 2005-08-20 06:29 8 kb
236: CGI::Carp ? 12 2005-08-09 17:05 12 kb
237: Oekaki error 12 2005-08-05 15:57 11 kb
238: Looking for a webhost 20 2005-07-30 20:53 21 kb
239: Threads not showing up at first (Wakaba) 25 2005-07-11 18:37 19 kb
240: FORCED_ANON stuff 3 2005-07-11 17:47 6 kb
241: midi-file picture 1 2005-07-09 06:43 5 kb
242: help :/ 19 2005-06-29 08:45 15 kb
243: Wakaba-tan Frontpage Image 5 2005-06-25 01:39 7 kb
244: spaces in filenames don't get translated to "_" 8 2005-06-02 21:25 10 kb
245: AOL DQN 3 2005-05-31 06:16 6 kb
246: paypal buttons 19 2005-05-17 18:22 17 kb
247: A small request. 6 2005-05-05 04:36 8 kb
248: 'method not allowed' 4 2005-05-01 20:00 6 kb
249: 【Wakaba】 10 2005-04-12 04:25 10 kb
250: ID codes 22 2006-01-10 05:09 22 kb
251: Wakaba 2.1.0 48 2005-03-29 19:31 34 kb
252: 【Kareha】 No title entered 8 2005-03-27 06:34 9 kb
253: 【Kareha】 admin posting 9 2005-03-26 07:43 10 kb
254: Little Request 3 2005-03-24 09:12 6 kb
255: I send you this file in order to have your advice. 8 2005-03-20 19:11 9 kb
256: 【Kareha】 Pages? 2 2005-03-18 14:48 6 kb
257: 【Kareha】 Automatic l50? 9 2005-03-18 14:47 10 kb
258: making kareha use application/xhtml+xml instead of text/html 21 2005-03-16 19:21 20 kb
259: New feature on Futaba 5 2005-03-14 21:29 7 kb
260: New wiki 9 2005-03-12 21:05 9 kb
261: Wakaba - pinned threads 10 2006-10-29 03:47 12 kb
262: Puny suggestions 6 2005-02-28 11:32 8 kb
263: question about the documentation wiki 5 2005-02-22 22:45 7 kb
264: Thumbnails 7 2005-02-20 20:22 9 kb
265: New version! New version! New version! 39 2005-02-19 22:03 33 kb
266: need help with zero 10 2005-02-16 04:27 10 kb
267: [Wakaba] I am unable to activate the .js file 10 2005-02-15 16:45 12 kb
268: Experimental Wakaba version 3 2005-02-03 04:59 5 kb
269: kareha's rss feeds are not valid rss 7 2005-01-30 17:11 10 kb
270: ImageMagick alternative 4 2005-01-29 22:07 8 kb
271: 【Wakaba】 >> 3 2005-01-26 02:32 6 kb
272: No data 7 2005-01-26 00:52 8 kb
273: Waha sends you the translations to Spanish 14 2005-01-21 22:18 13 kb
274: Perl restrictions hindering installation 19 2005-01-20 20:46 17 kb
275: Search engines now using the rel=nofollow attribute 2 2005-01-19 19:45 5 kb
276: futallaby modificatons? 21 2005-01-18 01:36 21 kb
277: Better E-mail field parsing 46 2005-01-17 06:57 35 kb
278: Wakaba-tan's face overshadowed by linklist 4 2005-01-15 01:07 6 kb
279: Version numbers? 4 2005-01-10 00:16 6 kb
280: New Kareha release 6 2005-01-07 05:21 9 kb
281: Dereferrer Support? 5 2005-01-07 00:42 7 kb
282: Making smaller HTML files? 8 2004-12-27 19:58 12 kb
283: Internal Server Error Woes 22 2004-12-27 17:03 19 kb
284: Wakamark 31 2004-12-20 05:53 24 kb
285: 500 Internal Server Error 100webspace.com 5 2004-12-16 16:43 8 kb
286: SITE MOVE 5 2004-12-16 16:41 7 kb
287: Perl Error 6 2004-12-14 04:16 8 kb
288: captcha problem 6 2004-12-13 04:07 8 kb
289: The long-awaited new releases 7 2004-12-11 05:36 13 kb
290: Help me, I'm useless. 7 2004-12-10 21:10 8 kb
291: Global links? 4 2004-12-10 00:41 7 kb
292: general Moderator 5 2004-12-09 13:26 8 kb
293: Documentation wiki 2 2004-12-08 23:41 5 kb
294: Two questions 6 2004-12-05 21:25 8 kb
295: getting mysql to work with wakaba 11 2004-11-28 12:23 11 kb
296: Christmas cleaning Wakaba release 4 2004-11-24 16:46 8 kb
297: Request for assistance 7 2004-11-22 01:28 10 kb
298: Wakaba beta version 3 2004-11-19 18:45 7 kb
299: Minor bugfix release 1 2004-11-18 20:00 5 kb
300: And a new Wakaba, too 15 2004-11-17 17:05 15 kb
301: The moment you have all been waiting for 8 2004-11-14 03:30 12 kb
302: wakabazero dies 14 2005-10-27 03:30 16 kb
303: /sup/ is now under a BLANKET OF SNOW 11 2004-11-12 03:31 9 kb
304: Reverse translation? 5 2004-11-07 09:19 7 kb
305: lol internet 2 2014-11-21 17:48 5 kb
306: /sup/ is now under a BLANKET OF FEAR 8 2004-11-06 02:57 9 kb
307: The Test Thread (permasaged) 400 2016-11-04 13:52 699 kb
308: New Kareha CSS 9 2004-11-04 01:51 9 kb
309: Why is Wakaba in Perl? 3 2004-10-27 13:47 6 kb
310: Exodus release 1 4 2004-10-26 13:50 7 kb
311: IIchan will be forever immortal. 1 2004-10-23 08:33 4 kb
312: Vericode 24 2004-10-16 02:00 17 kb
313: New Kareha release 2 2015-09-28 08:10 5 kb